EHI
0 0 0 0 0 0 0 0 0 0 0 1 1 2 2 1 0 0 0 0 0 0 0 0 0 0 0 0 0 0 0 0 0 0 0 0 0 0
0 0 0 0 0 0 0 0 0 0 0 0 0 1 1 0 0 0 0 0 0 0 0 0 0 0 0 0 0 0 0 0 0 0 0 0 0 0
0 0 0 0 0 0 0 0 0 0 0 0 0 0 0 0 0 0 0 0 0 0 0 0 0 0 0 0 0 0 0 0 0 0 0 0 0 0
0 0 0 0 0 0 0 0 0 0 0 0 0 0 0 0 0 0 0 0 0 0 0 0 0 0 0 0 0 0 0 0 0 0 0 0 0 0
0 0 0 0 0 0 0 0 0 0 0 0 0 0 0 0 0 0 0 0 0 0 0 0 0 0 0 0 0 0 0 0 0 0 0 0 0 0
0 0 0 0 0 0 0 0 0 0 0 0 0 0 0 0 0 0 0 0 0 0 0 0 0 0 0 0 0 0 0 0 0 0 0 0 0 0
0 0 0 0 0 0 0 0 0 0 0 0 0 0 0 0 0 0 0 0 0 0 0 0 0 0 0 0 0 0 0 0 0 0 0 0 0 0
0 0 0 0 0 0 0 0 0 0 0 0 0 0 0 0 0 0 0 0 0 0 0 0 0 1 0 0 0 0 0 0 0 0 0 0 0 0
0 0 0 0 0 0 0 0 0 0 0 0 0 0 0 0 0 0 0 0 0 0 0 0 0 0 0 0 0 0 0 0 0 0 0 0 0 0
0 0 0 0 0 0 0 0 0 0 0 0 0 0 0 0 0 0 0 0 0 0 0 0 0 0 0 0 0 0 0 0 0 0 0 0 0 0
0 0 0 0 0 0 0 0 0 0 0 0 0 0 0 0 0 0 0 0 0 0 0 0 0 0 0 0 0 0 0 0 0 0 0 0 0 0
0 0 0 0 0 0 0 0 0 0 0 0 0 0 0 0 0 0 0 0 0 0 0 0 0 0 0 0 0 0 0 0 0 0 0 0 0 0
0 0 0 0 0 0 0 0 0 0 0 0 0 0 0 0 0 0 0 0 0 0 0 0 0 0 0 0 0 0 0 0 0 0 0 0 0 0
0 0 0 0 0 0 0 0 0 0 0 0 0 0 0 0 0 0 0 0 0 0 0 0 0 0 0 0 0 0 0 0 0 0 0 0 0 0
0 0 0 0 0 0 0 0 0 0 0 0 0 0 0 0 0 0 0 0 0 0 0 0 0 0 0 0 0 0 0 0 0 0 0 0 0 0
0 0 0 0 0 0 0 0 0 0 0 0 0 0 0 0 0 0 0 0 0 0 0 0 0 0 0 0 0 0 0 0 0 0 0 0 0 0
0 0 0 0 0 0 0 0 0 0 0 0 0 0 0 0 0 0 0 0 0 0 0 0 0 0 0 0 0 0 0 0 0 0 0 0 0 0
0 0 0 0 0 0 0 0 0 0 0 0 0 0 0 0 0 0 0 0 0 0 0 0 0 0 0 0 0 0 0 0 0 0 0 0 0 0
0 0 0 0 0 0 0 0 0 0 0 0 0 0 0 0 0 0 0 0 0 0 0 0 0 0 0 0 0 0 0 0 0 0 0 0 0 0
0 0 0 0 0 0 0 0 0 0 0 0 0 0 0 0 0 0 0 0 0 0 0 0 0 0 0 0 0 0 0 0 0 0 0 0 0 0
0 0 0 0 0 0 0 0 0 0 0 0 0 0 0 0 0 0 0 0 0 0 0 0 0 0 0 0 0 0 0 0 0 0 0 0 0 0
0 0 0 0 0 0 0 0 0 0 0 0 0 0 0 0 0 0 0 0 0 0 0 0 0 0 0 0 0 0 0 0 0 0 0 0 0 0
0 0 0 0 0 0 0 0 0 0 0 0 0 0 0 0 0 0 0 0 0 0 0 0 0 0 0 0 0 0 0 0 0 0 0 0 0 0
Wind_Speed
3 3 3 2 3 3 3 3 3 4 3 2 2 2 2 3 2 5 6 8 10 10 11 12 12 13 13 14 14 15 15 15 14 14 15 16 16 16
3 4 4 3 3 3 3 4 4 4 3 2 2 2 2 3 3 5 5 5 9 9 10 11 12 13 13 14 14 14 14 14 14 14 15 15 15 15
4 4 4 4 3 3 3 3 4 4 5 4 3 3 4 4 3 4 5 6 6 10 10 10 11 12 13 14 14 14 14 14 15 15 16 16 16 16
4 4 4 3 4 4 3 4 4 4 5 5 4 3 5 4 4 5 5 5 5 8 10 10 10 11 12 13 13 14 14 15 15 15 16 16 17 17
4 4 4 4 4 3 4 4 3 3 4 5 4 3 4 3 4 4 5 4 6 5 9 11 12 12 12 12 13 13 14 15 15 15 16 16 17 18
4 4 4 4 4 4 4 4 4 4 4 5 4 4 4 4 4 4 4 4 5 5 5 6 9 12 13 13 13 14 14 14 15 15 15 15 16 17
4 4 3 3 5 5 5 5 4 4 4 4 4 4 4 4 4 4 5 4 5 5 5 6 6 7 9 12 14 14 14 15 15 15 15 15 16 17
4 4 3 4 4 5 6 7 7 7 6 5 5 5 6 5 4 4 4 5 5 3 5 5 5 6 6 7 9 12 14 15 15 15 15 15 16 17
4 4 3 2 4 4 4 7 7 7 8 8 7 7 6 6 5 6 6 6 6 4 4 6 5 7 6 6 10 13 14 15 15 15 16 16 16 17
4 4 4 4 3 5 5 5 5 4 5 6 7 7 6 6 6 7 7 6 7 5 5 6 6 6 6 6 10 13 14 14 14 15 15 15 15 16
3 3 4 4 2 4 6 5 5 4 3 6 7 7 8 8 7 6 6 6 6 6 5 5 6 6 6 6 7 12 12 13 13 13 14 14 14 14
2 2 0 3 5 5 6 5 5 5 5 4 5 7 7 6 8 8 6 6 6 5 4 5 5 4 5 4 4 5 7 10 12 13 13 13 13 10
2 2 1 2 4 4 6 4 5 6 5 5 4 4 4 4 4 4 5 5 6 6 4 4 5 5 5 5 4 5 5 5 6 8 11 14 15 13
3 3 3 4 3 3 3 4 5 5 4 3 3 3 3 4 4 4 6 6 7 8 8 7 6 6 6 7 6 5 5 5 6 6 6 9 13 16
3 5 5 4 3 1 3 4 4 3 3 3 3 4 4 5 5 4 5 6 8 8 7 9 8 7 7 8 7 6 6 6 7 7 7 7 7 8
1 2 1 1 2 3 2 2 3 3 4 4 4 4 4 4 4 4 5 5 5 6 6 7 8 9 8 9 8 8 7 6 6 7 7 7 7 8
4 2 2 3 3 4 4 4 4 4 4 4 4 5 5 5 5 5 5 5 5 6 6 5 6 6 8 8 8 8 8 8 7 7 7 8 9 9
3 2 3 4 4 4 4 4 4 4 4 5 5 5 5 6 6 5 5 5 6 6 6 6 5 5 5 6 8 10 8 8 7 7 7 8 9 9
2 3 3 3 4 4 4 4 4 5 4 4 4 5 5 5 6 6 6 6 6 7 6 6 5 5 7 8 7 8 8 8 7 7 7 8 9 9
3 3 3 3 4 4 4 5 5 5 5 5 5 5 6 6 6 6 6 7 8 8 7 6 6 5 7 8 8 8 11 10 8 8 8 7 8 7
3 3 3 4 4 4 5 5 5 5 6 6 6 6 6 6 7 7 7 8 8 8 8 8 7 9 8 7 8 8 8 10 10 9 8 7 7 6
3 3 3 4 4 5 5 5 6 6 6 6 6 6 6 7 8 9 8 8 8 8 9 9 9 8 7 8 9 10 10 9 9 12 12 10 7 7
3 3 4 4 4 5 5 6 7 6 6 6 7 7 7 8 8 8 9 9 9 10 10 9 9 8 8 9 10 10 12 11 8 7 8 10 13 13
Wind_Direction
289 281 277 284 281 285 279 270 271 270 259 246 237 215 225 233 196 229 233 199 204 213 217 217 217 218 218 219 218 217 216 216 216 212 212 213 213 211
284 281 279 279 287 277 275 271 262 268 271 267 263 262 258 255 210 242 243 198 207 213 217 219 219 219 219 219 217 216 216 214 213 212 211 212 212 211
280 273 271 280 276 268 260 260 259 258 263 269 261 265 257 257 244 247 244 234 216 203 214 219 219 220 221 220 217 215 214 214 214 214 212 212 211 210
297 285 277 268 272 276 269 259 256 257 267 277 276 271 268 263 261 257 250 240 240 201 209 219 221 222 223 221 218 216 215 215 214 213 212 213 213 213
295 286 284 279 274 276 273 266 256 252 259 265 272 273 274 266 263 258 252 250 251 219 209 218 222 224 225 224 220 218 216 216 214 212 213 214 214 214
290 284 282 279 279 283 275 274 264 256 252 256 263 264 265 266 259 259 258 243 245 242 231 225 219 220 224 225 222 218 217 216 215 214 213 214 214 215
284 279 282 300 316 302 296 289 273 260 253 253 257 260 260 259 256 259 262 263 252 236 237 231 222 225 220 221 223 221 217 216 216 215 214 214 214 216
293 293 272 236 245 250 268 285 287 276 271 262 258 259 264 263 262 258 261 263 262 233 245 247 234 238 233 229 214 212 216 217 217 216 216 215 216 217
293 294 297 293 273 272 242 242 250 249 260 271 271 270 275 276 270 263 258 262 267 273 266 263 247 245 240 232 206 209 215 217 217 217 218 219 219 220
276 285 289 291 302 308 293 281 283 273 262 258 268 277 283 286 274 269 274 274 275 266 252 260 259 254 252 240 208 207 213 216 217 219 219 219 220 221
268 282 295 295 16 310 285 283 285 282 243 242 269 280 291 284 276 269 258 253 263 258 241 250 262 266 261 251 224 204 211 215 217 219 221 221 220 221
264 261 192 317 346 313 284 286 289 299 301 276 248 243 254 247 234 249 259 259 264 267 246 244 262 269 267 248 239 222 217 217 217 221 223 223 218 221
297 299 38 39 330 318 297 298 319 312 295 291 289 288 285 282 272 265 264 261 263 262 259 254 262 259 258 270 263 248 241 237 225 225 223 222 218 218
325 337 25 27 343 330 322 354 337 303 287 293 298 302 303 303 299 290 281 272 265 269 270 264 262 259 260 262 265 258 249 244 237 236 235 221 219 220
6 27 15 -0 321 305 39 2 326 309 313 310 308 309 311 310 308 302 291 283 278 269 263 259 256 255 253 257 262 259 258 253 244 240 236 233 230 224
14 73 118 33 353 15 19 12 1 358 338 322 317 315 313 309 306 306 301 298 287 280 271 268 264 259 256 255 255 258 254 250 244 241 241 240 236 231
342 1 16 20 20 19 14 14 3 357 347 337 327 323 320 318 314 315 308 301 293 293 294 287 278 272 262 259 258 254 253 251 247 244 243 246 242 234
331 27 25 19 13 8 1 357 357 357 350 341 336 332 327 323 320 318 311 305 300 299 300 299 295 287 277 262 242 255 257 255 251 243 241 247 250 243
1 28 19 10 0 354 349 345 344 345 339 332 330 330 327 324 321 318 316 311 305 303 301 300 295 286 283 282 265 233 255 263 258 251 243 244 251 250
18 14 5 354 346 342 340 337 334 334 331 330 328 327 326 322 321 320 317 317 313 308 304 301 298 294 286 285 284 273 244 253 258 257 254 251 254 259
6 358 349 340 336 334 333 328 325 323 324 322 321 321 319 317 315 315 313 313 308 305 305 303 306 303 292 286 280 277 270 249 253 259 260 256 256 251
344 339 337 333 330 328 326 321 319 319 321 320 319 317 314 311 309 308 306 305 303 302 301 300 303 300 293 285 284 285 286 282 261 253 251 244 243 245
331 328 324 322 322 320 317 314 314 314 315 313 312 310 308 306 303 301 301 300 301 300 301 300 300 296 290 286 286 286 286 286 282 269 257 245 241 249